Change the Weather History Date:

Tuesday, February 19, 2013

  Actual Average Record
Temperature  
Mean Temperature 44 °F 48 °F  
Max Temperature 56 °F 59 °F 76 °F (2014)
Min Temperature 31 °F 36 °F 19 °F (2015)
Degree Days  
Heating Degree Days 21 17  
Month to date heating degree days 378 365  
Since 1 July heating degree days 1902 2084  
Cooling Degree Days 0 0  
Month to date cooling degree days 0 0  
Year to date cooling degree days 4 1  
Moisture  
Dew Point 45 °F    
Average Humidity 83    
Maximum Humidity 100    
Minimum Humidity 66    
Precipitation  
Precipitation 0.08 in 0.12 in 0.71 in (2012)
Month to date precipitation 2.05 1.88  
Year to date precipitation 3.53 4.85  
Sea Level Pressure  
Sea Level Pressure 30.02 in    
Wind  
Wind Speed 7 mph (SW)    
Max Wind Speed 20 mph    
Max Gust Speed 28 mph    
Visibility 6 miles    
Events Fog , Rain    
T = Trace of Precipitation, MM = Missing Value Source: NWS Daily Summary

Daily Weather History Graph

Daily Weather History Graph

Search for Another Location

Airport or City:

Trip Planner

Search our weather history database for the weather conditions in past years. The results will help you decide how hot, cold, wet, or windy it might be!

Date:

Astronomy

Feb. 19, 2013 Rise Set
Actual Time 6:57 AM EST 6:03 PM EST
Civil Twilight 6:31 AM EST 6:29 PM EST
Nautical Twilight 6:02 AM EST 6:58 PM EST
Astronomical Twilight 5:32 AM EST 7:27 PM EST
Moon 12:41 PM EST (2/19) 2:20 AM EST (2/19)
Length of Visible Light 11h 57m
Length of Day
11h 06m
Waxing Gibbous, 67% of the Moon is Illuminated
Feb 19
Waxing Gibbous
Feb 25
Full
Mar 4
Last Quarter
Mar 11
New
Mar 19
First Quarter

Hourly Weather History & Observations

Time (EST) Temp. Windchill Dew Point Humidity Pressure Visibility Wind Dir Wind Speed Gust Speed Precip Events Conditions
12:54 AM 32.0 °F 28.7 °F 28.0 °F 85% 30.26 in 10.0 mi SSE 3.5 mph - N/A   Clear
1:54 AM 33.1 °F - 28.0 °F 82% 30.25 in 10.0 mi Calm Calm - N/A   Clear
2:54 AM 32.0 °F - 28.9 °F 88% 30.22 in 10.0 mi Calm Calm - N/A   Partly Cloudy
3:54 AM 32.0 °F - 28.9 °F 88% 30.19 in 10.0 mi Calm Calm - N/A   Partly Cloudy
4:54 AM 32.0 °F 28.7 °F 30.0 °F 92% 30.17 in 10.0 mi ESE 3.5 mph - N/A   Mostly Cloudy
5:54 AM 32.0 °F - 28.9 °F 88% 30.15 in 10.0 mi Calm Calm - N/A   Clear
7:54 AM 37.9 °F 35.5 °F 35.1 °F 89% 30.14 in 10.0 mi SSE 3.5 mph - N/A   Overcast
8:54 AM 46.0 °F 44.8 °F 41.0 °F 83% 30.12 in 10.0 mi South 3.5 mph - N/A   Scattered Clouds
9:54 AM 51.1 °F - 44.1 °F 77% 30.09 in 10.0 mi South 5.8 mph - N/A   Scattered Clouds
10:54 AM 55.9 °F - 45.0 °F 67% 30.09 in 10.0 mi SSW 8.1 mph - N/A   Overcast
11:54 AM 54.0 °F - 48.9 °F 83% 30.06 in 9.0 mi WSW 12.7 mph 19.6 mph 0.03 in Rain Light Rain
1:54 PM 55.0 °F - 51.1 °F 86% 29.97 in 9.0 mi SSW 11.5 mph 21.9 mph 0.02 in   Overcast
2:21 PM 53.6 °F - 51.8 °F 94% 29.95 in 2.0 mi SSW 11.5 mph 23.0 mph 0.00 in Rain Light Rain
2:28 PM 53.6 °F - 51.8 °F 94% 29.95 in 1.8 mi SSW 13.8 mph 20.7 mph 0.01 in Rain Light Rain
2:33 PM 53.6 °F - 51.8 °F 94% 29.95 in 1.8 mi SSW 16.1 mph - 0.01 in Rain Light Rain
2:42 PM 53.6 °F - 51.8 °F 94% 29.95 in 2.5 mi SSW 15.0 mph 24.2 mph 0.01 in Rain Light Rain
2:46 PM 53.6 °F - 51.8 °F 94% 29.95 in 2.5 mi SSW 13.8 mph 24.2 mph 0.01 in   Overcast
2:54 PM 54.0 °F - 52.0 °F 93% 29.94 in 2.0 mi SSW 15.0 mph 21.9 mph 0.01 in   Overcast
3:09 PM 53.6 °F - 51.8 °F 94% 29.94 in 3.0 mi SSW 12.7 mph 20.7 mph 0.01 in Rain Light Rain
3:16 PM 53.6 °F - 51.8 °F 94% 29.94 in 2.5 mi SSW 11.5 mph 23.0 mph 0.01 in   Overcast
3:25 PM 53.6 °F - 51.8 °F 94% 29.93 in 2.0 mi SSW 10.4 mph 21.9 mph 0.01 in   Overcast
3:38 PM 53.6 °F - 51.8 °F 94% 29.93 in 2.0 mi SSW 9.2 mph 18.4 mph 0.01 in   Overcast
3:54 PM 54.0 °F - 53.1 °F 97% 29.93 in 2.5 mi SW 9.2 mph - 0.01 in   Overcast
4:07 PM 53.6 °F - 53.6 °F 100% 29.92 in 3.0 mi SW 9.2 mph - N/A   Overcast
4:54 PM 55.0 °F - 53.1 °F 93% 29.91 in 9.0 mi SW 12.7 mph 23.0 mph N/A   Overcast
5:54 PM 54.0 °F - 51.1 °F 90% 29.92 in 10.0 mi WSW 16.1 mph - 0.01 in   Overcast
6:26 PM 53.6 °F - 50.0 °F 88% 29.93 in 10.0 mi WSW 11.5 mph - N/A   Mostly Cloudy
7:47 PM 51.8 °F - 48.2 °F 88% 29.96 in 10.0 mi WSW 10.4 mph - N/A   Mostly Cloudy
7:54 PM 51.1 °F - 48.0 °F 89% 29.97 in 10.0 mi West 11.5 mph - N/A   Scattered Clouds
8:54 PM 48.9 °F - 46.0 °F 90% 29.98 in 10.0 mi West 8.1 mph - N/A   Clear
9:54 PM 45.0 °F 42.6 °F 44.1 °F 97% 29.99 in 10.0 mi West 4.6 mph - N/A   Clear
10:40 PM 42.8 °F - 41.0 °F 93% 29.98 in 1.8 mi Calm Calm - N/A   Clear
10:42 PM 42.8 °F - 41.0 °F 93% 29.99 in 0.8 mi Calm Calm - N/A   Clear
10:54 PM 43.0 °F - 43.0 °F 100% 29.99 in 0.5 mi Calm Calm - N/A Fog Fog
11:30 PM 39.2 °F 37.0 °F 39.2 °F 100% 29.98 in 0.2 mi West 3.5 mph - N/A Fog Fog
11:54 PM 39.0 °F 35.7 °F 39.0 °F 100% 29.99 in 0.5 mi West 4.6 mph - N/A Fog Fog